[[{"header":{"parameterUnit":"m.s-1","parameterCategory":1,"la1":30.2991,"la2":30.254,"lo1":-89.0895,"lo2":-89.0444,"dy":0.0017,"dx":0.0017,"nx":28,"ny":28,"refTime":"2024-09-29T03:00:00:Z","depth":0,"parameterNumber":2,"parameterNumberName":"U-component_of_WINDS"},"data":[0,0,0,0,0,0,0,0,0,0,0,0,0,0,0,0,0,0,0,0,0,0,0,0,0,0,0,0,0,0,0,0,0,0,0,0,0,0,0,0,0,0,0,0,0,0,0,0,0,0,0,0,0,0,0,0,0,0,-0.6374,-0.6374,0,-0.6408,-0.6408,-0.6408,-0.638,-0.6379,-0.6378,-0.6376,-0.6412,-0.6414,-0.6416,0,0,0,0,0,0,0,0,0,0,0,0,0,-0.6285,-0.6286,-0.6374,-0.6374,-0.6374,-0.6408,-0.6408,-0.6409,-0.638,-0.6379,-0.6377,-0.6376,-0.6411,-0.6414,-0.6416,0,0,0,0,0,0,0,0,0,0,0,0,0,-0.6321,-0.6287,-0.6374,-0.6364,-0.6364,-0.6408,-0.6408,-0.6409,-0.638,-0.6379,-0.6377,-0.6375,-0.641,-0.6413,-0.6416,-0.6471,0,0,-0.6426,-0.6427,0,0,0,0,0,0,0,0,-0.6319,-0.6325,-0.6365,-0.6365,-0.6364,-0.6388,-0.639,-0.643,-0.6381,-0.6374,-0.6376,-0.6374,-0.6405,-0.6409,-0.6419,-0.6473,-0.6475,-0.6426,-0.6428,-0.6429,-0.643,0,0,0,0,0,0,0,-0.6317,-0.6323,-0.6387,-0.6366,-0.6365,-0.6359,-0.6362,-0.6397,-0.6399,-0.6375,-0.6373,-0.6377,-0.6405,-0.6416,-0.642,-0.6475,-0.6426,-0.6429,-0.6431,-0.6432,-0.6576,-0.6578,0,0,0,0,0,0,-0.6315,-0.6321,-0.6386,-0.6388,-0.6337,-0.6362,-0.6365,-0.6382,-0.6399,-0.64,-0.6378,-0.6375,-0.6412,-0.6416,-0.6421,-0.6486,-0.6429,-0.6432,-0.6434,-0.6574,-0.6576,-0.6579,0,0,0,0,0,0,-0.6313,-0.6321,-0.6385,-0.6354,-0.6362,-0.6365,-0.6384,-0.6384,-0.6395,-0.6402,-0.6402,-0.639,-0.6411,-0.6416,-0.6459,-0.6487,-0.6434,-0.6436,-0.6572,-0.6575,-0.6577,-0.6618,0,0,0,0,0,0,-0.6311,-0.6321,-0.6342,-0.6355,-0.6363,-0.6422,-0.6386,-0.6386,-0.64,-0.6397,-0.6412,-0.6413,-0.641,-0.6455,-0.6462,-0.649,-0.6439,-0.6569,-0.6573,-0.6577,-0.6614,-0.6622,-0.6628,0,0,0,0,0,-0.6308,-0.6352,-0.6343,-0.6351,-0.6389,-0.6424,-0.6429,-0.6424,-0.6403,-0.6424,-0.6428,-0.6413,-0.6483,-0.6459,-0.6467,-0.6497,-0.6567,-0.6572,-0.6576,-0.6611,-0.662,-0.6628,0,0,0,0,0,0,-0.6342,-0.6353,-0.6343,-0.6393,-0.6408,-0.6419,-0.6445,-0.6434,-0.6455,-0.6451,-0.6443,-0.6447,-0.6492,-0.6499,-0.6472,-0.6551,-0.6522,-0.6528,-0.6545,-0.6554,-0.6561,-0.6559,-0.6441,0,0,0,0,0,-0.6355,-0.6382,-0.639,-0.6433,-0.6441,-0.6442,-0.6457,-0.6451,-0.6467,-0.6473,-0.648,-0.6496,-0.6521,-0.6538,-0.6562,-0.6615,-0.6618,-0.6639,-0.6647,-0.6652,-0.6658,-0.6687,-0.6696,-0.6593,-0.6593,-0.6593,0,0,-0.6383,-0.6392,-0.6409,-0.644,-0.6451,-0.6479,-0.6447,-0.6479,-0.6499,-0.6477,-0.6518,-0.6524,-0.6541,-0.6589,-0.661,-0.6596,-0.6687,-0.6658,-0.6663,-0.6665,-0.6692,-0.6702,-0.6711,-0.6596,-0.6596,-0.6595,0,0,-0.6447,-0.6457,-0.6494,-0.6505,-0.6522,-0.6522,-0.6531,-0.6545,-0.6548,-0.6588,-0.6572,-0.6597,-0.6641,-0.6654,-0.6666,-0.6736,-0.6722,-0.6744,-0.6781,-0.6809,-0.6817,-0.6825,-0.685,-0.6859,-0.6749,-0.6749,-0.6749,0,-0.6479,-0.6521,-0.6514,-0.6546,-0.6561,-0.6542,-0.6579,-0.6591,-0.6614,-0.6625,-0.6608,-0.6663,-0.6673,-0.6723,-0.674,-0.6751,-0.6761,-0.6742,-0.6817,-0.6824,-0.6831,-0.6854,-0.6864,-0.6752,-0.6751,-0.6751,-0.6751,0,-0.656,-0.6589,-0.6617,-0.664,-0.6657,-0.6692,-0.669,-0.6709,-0.6702,-0.6704,-0.6746,-0.6757,-0.6783,-0.6794,-0.6788,-0.6844,-0.6835,-0.6818,-0.6788,-0.6843,-0.6865,-0.6874,-0.6755,-0.6754,-0.6754,-0.6753,0,0,-0.6647,-0.6666,-0.6676,-0.6687,-0.6704,-0.6726,-0.676,-0.6785,-0.6801,-0.6818,-0.6847,-0.6884,-0.6868,-0.6882,-0.6877,-0.6902,-0.6956,-0.6882,-0.6882,-0.6895,-0.7019,-0.7032,-0.7043,-0.6948,-0.6949,-0.6951,-0.7018,0,-0.6712,-0.6771,-0.6766,-0.6822,-0.6849,-0.6831,-0.6861,-0.6875,-0.6878,-0.6901,-0.6904,-0.6931,-0.6908,-0.6917,-0.694,-0.6945,-0.6981,-0.694,-0.6974,-0.6975,-0.697,-0.7054,-0.7068,-0.7131,-0.7026,-0.7028,-0.7029,0,-0.6796,-0.6816,-0.6875,-0.6888,-0.6899,-0.6926,-0.6948,-0.6971,-0.6986,-0.6987,-0.7002,-0.6993,-0.7027,-0.6997,-0.7044,-0.7016,-0.703,-0.7034,-0.7037,-0.704,-0.7006,-0.706,-0.7151,-0.716,-0.7043,-0.7041,-0.704,0,-0.6854,-0.6896,-0.6936,-0.6945,-0.6962,-0.6981,-0.6989,-0.7002,-0.7018,-0.7037,-0.7047,-0.7071,-0.7084,-0.7103,-0.71,-0.7078,-0.7148,-0.7118,-0.715,-0.715,-0.7166,-0.7165,-0.726,-0.7174,-0.7174,-0.7174,-0.7174,0,-0.6928,-0.6964,-0.6962,-0.6987,-0.7027,-0.7021,-0.7062,-0.7067,-0.7079,-0.7105,-0.7091,-0.7116,-0.7111,-0.7136,-0.7134,-0.7173,-0.7179,-0.7181,-0.718,-0.7182,-0.7182,-0.7191,-0.7186,-0.7177,-0.7176,-0.7176,-0.7175,0,-0.6999,-0.6999,-0.7042,-0.7054,-0.7058,-0.7087,-0.7097,-0.7121,-0.7123,-0.7156,-0.7163,-0.7166,-0.7194,-0.7193,-0.7225,-0.7224,-0.7273,-0.7267,-0.7267,-0.7266,-0.7298,-0.7295,-0.7403,-0.7417,-0.7322,-0.7323,-0.7324,0,-0.7046,-0.7074,-0.7089,-0.7105,-0.7114,-0.714,-0.7156,-0.7151,-0.7168,-0.7188,-0.7209,-0.7236,-0.7257,-0.7302,-0.7308,-0.7332,-0.7327,-0.7363,-0.733,-0.7331,-0.7327,-0.7326,-0.7328,-0.7369,-0.737,-0.7371,-0.7372,0,-0.713,-0.7129,-0.7151,-0.7175,-0.7194,-0.7212,-0.7228,-0.7242,-0.7239,-0.7259,-0.7287,-0.7304,-0.7336,-0.7363,-0.7387,-0.7395,-0.7383,-0.7382,-0.7391,-0.7393,-0.7392,-0.7393,-0.7285,-0.7379,-0.7379,-0.7378,-0.7378,-0.7377,-0.7191,-0.7214,-0.7229,-0.7255,-0.7267,-0.7282,-0.7305,-0.731,-0.7333,-0.7359,-0.7355,-0.7387,-0.7402,-0.7432,-0.7442,-0.7467,-0.7454,-0.7467,-0.747,-0.7474,-0.7477,-0.7389,-0.7471,-0.7471,-0.7471,-0.7471,-0.7471,0,-0.7273,-0.7282,-0.7306,-0.7329,-0.735,-0.7337,-0.7355,-0.7373,-0.7401,-0.7416,-0.7437,-0.7469,-0.7495,-0.7503,-0.7528,-0.7546,-0.7541,-0.7553,-0.7552,-0.7554,-0.7487,-0.7477,-0.7556,-0.7556,-0.7556,-0.7556,-0.7556,-0.7556,-0.7319,-0.7359,-0.7359,-0.7404,-0.7412,-0.7443,-0.7455,-0.7469,-0.7481,-0.7518,-0.754,-0.7544,-0.7556,-0.7581,-0.7605,-0.7606,-0.7616,-0.763,-0.7629,-0.7567,-0.7558,-0.755,-0.7541,-0.7632,-0.7632,-0.7693,-0.7694,-0.7694]},{"header":{"parameterUnit":"m.s-1","parameterCategory":1,"la1":30.2991,"la2":30.254,"lo1":-89.0895,"lo2":-89.0444,"dy":0.0017,"dx":0.0017,"nx":28,"ny":28,"refTime":"2024-09-29T03:00:00:Z","depth":0,"parameterNumber":3,"parameterNumberName":"V-component_of_WINDS"},"data":[0,0,0,0,0,0,0,0,0,0,0,0,0,0,0,0,0,0,0,0,0,0,0,0,0,0,0,0,0,0,0,0,0,0,0,0,0,0,0,0,0,0,0,0,0,0,0,0,0,0,0,0,0,0,0,0,0,0,-1.264,-1.2641,0,-1.2746,-1.2747,-1.2748,-1.2782,-1.2782,-1.2781,-1.2781,-1.2889,-1.2892,-1.2896,0,0,0,0,0,0,0,0,0,0,0,0,0,-1.2468,-1.2471,-1.264,-1.2641,-1.2643,-1.2745,-1.2747,-1.2748,-1.2782,-1.2782,-1.2781,-1.278,-1.2888,-1.2892,-1.2896,0,0,0,0,0,0,0,0,0,0,0,0,0,-1.2555,-1.2472,-1.264,-1.2672,-1.2676,-1.2745,-1.2747,-1.2749,-1.2782,-1.2782,-1.2781,-1.278,-1.2887,-1.2892,-1.2896,-1.2941,0,0,-1.2912,-1.2914,0,0,0,0,0,0,0,0,-1.255,-1.2562,-1.2666,-1.267,-1.2674,-1.275,-1.2726,-1.2813,-1.2782,-1.2742,-1.2781,-1.278,-1.2843,-1.2852,-1.2873,-1.2947,-1.2951,-1.2912,-1.2915,-1.2917,-1.2919,0,0,0,0,0,0,0,-1.2544,-1.2557,-1.2682,-1.2667,-1.2672,-1.2681,-1.2693,-1.2743,-1.2795,-1.2745,-1.2748,-1.276,-1.2846,-1.2868,-1.2876,-1.2953,-1.2912,-1.2916,-1.292,-1.2921,-1.3069,-1.307,0,0,0,0,0,0,-1.2533,-1.2552,-1.2678,-1.2685,-1.2609,-1.2685,-1.2698,-1.2726,-1.2795,-1.2805,-1.2761,-1.2761,-1.286,-1.287,-1.288,-1.2937,-1.2917,-1.2922,-1.2925,-1.3068,-1.3069,-1.307,0,0,0,0,0,0,-1.2529,-1.2544,-1.2674,-1.2619,-1.2636,-1.2689,-1.272,-1.2729,-1.2752,-1.2806,-1.2816,-1.2774,-1.286,-1.2873,-1.2926,-1.2942,-1.2924,-1.2929,-1.3067,-1.3068,-1.3069,-1.3052,0,0,0,0,0,0,-1.2524,-1.2542,-1.2559,-1.2619,-1.2639,-1.2718,-1.2721,-1.2731,-1.276,-1.2762,-1.2822,-1.2831,-1.286,-1.2918,-1.2931,-1.2948,-1.2933,-1.3066,-1.3067,-1.3069,-1.3052,-1.3053,-1.3054,0,0,0,0,0,-1.2518,-1.255,-1.256,-1.2575,-1.2662,-1.2719,-1.273,-1.2764,-1.2761,-1.2779,-1.2815,-1.2829,-1.2938,-1.2924,-1.2938,-1.2957,-1.3065,-1.3067,-1.3069,-1.3051,-1.3053,-1.3054,0,0,0,0,0,0,-1.2491,-1.2559,-1.257,-1.2624,-1.2665,-1.2724,-1.2748,-1.2764,-1.2807,-1.2807,-1.2847,-1.286,-1.291,-1.2939,-1.2922,-1.3004,-1.3002,-1.3007,-1.2984,-1.2985,-1.2986,-1.2978,-1.2937,0,0,0,0,0,-1.2491,-1.2532,-1.2589,-1.263,-1.265,-1.2696,-1.2722,-1.2744,-1.2789,-1.2806,-1.2845,-1.2888,-1.2933,-1.2961,-1.3004,-1.3056,-1.307,-1.3076,-1.3077,-1.3078,-1.3082,-1.3112,-1.3115,-1.3077,-1.3077,-1.3077,0,0,-1.2492,-1.2534,-1.2557,-1.2626,-1.2661,-1.2702,-1.271,-1.2753,-1.2784,-1.2813,-1.2865,-1.2896,-1.2946,-1.2999,-1.3024,-1.3025,-1.3096,-1.3081,-1.3081,-1.3084,-1.3114,-1.3118,-1.3121,-1.3078,-1.3078,-1.3078,0,0,-1.2515,-1.2551,-1.259,-1.2624,-1.2677,-1.2707,-1.2716,-1.2774,-1.2795,-1.2848,-1.2871,-1.2908,-1.2983,-1.3018,-1.3046,-1.3083,-1.3097,-1.3096,-1.3101,-1.313,-1.3133,-1.3136,-1.3149,-1.3153,-1.3099,-1.3099,-1.3099,0,-1.251,-1.2573,-1.2607,-1.2649,-1.2679,-1.2707,-1.2746,-1.2779,-1.2843,-1.2863,-1.2862,-1.2957,-1.2993,-1.3054,-1.3063,-1.3085,-1.3097,-1.3089,-1.313,-1.3133,-1.3136,-1.3149,-1.3154,-1.3099,-1.3099,-1.3099,-1.3099,0,-1.2563,-1.2606,-1.2631,-1.2693,-1.2725,-1.2765,-1.2807,-1.2835,-1.2855,-1.2885,-1.2939,-1.2983,-1.3036,-1.3053,-1.3072,-1.3117,-1.3116,-1.3122,-1.312,-1.3139,-1.3152,-1.3157,-1.3098,-1.3098,-1.3098,-1.3098,0,0,-1.2572,-1.2652,-1.2661,-1.2689,-1.275,-1.2784,-1.2826,-1.2878,-1.2901,-1.2945,-1.2981,-1.3044,-1.305,-1.3082,-1.3106,-1.3131,-1.3157,-1.3134,-1.3136,-1.3137,-1.321,-1.3204,-1.321,-1.3167,-1.3169,-1.3169,-1.3205,0,-1.2603,-1.2679,-1.2711,-1.2772,-1.2813,-1.284,-1.2877,-1.2918,-1.2947,-1.2986,-1.3018,-1.3062,-1.3067,-1.3087,-1.3113,-1.3148,-1.3172,-1.3146,-1.3202,-1.3203,-1.3188,-1.3216,-1.3211,-1.3243,-1.3211,-1.3212,-1.3212,0,-1.2649,-1.2692,-1.2757,-1.2813,-1.2831,-1.2863,-1.2914,-1.295,-1.2998,-1.3017,-1.3052,-1.3075,-1.312,-1.3116,-1.3179,-1.3161,-1.3185,-1.3206,-1.3208,-1.3215,-1.3209,-1.3223,-1.3254,-1.3258,-1.3221,-1.322,-1.3219,0,-1.2648,-1.2723,-1.2772,-1.2795,-1.2861,-1.2884,-1.2912,-1.2959,-1.2988,-1.3032,-1.3052,-1.3101,-1.3127,-1.3165,-1.32,-1.3194,-1.326,-1.3258,-1.3278,-1.3277,-1.329,-1.3289,-1.3325,-1.3306,-1.3306,-1.3306,-1.3306,0,-1.2679,-1.2717,-1.2773,-1.2802,-1.2847,-1.2884,-1.2927,-1.2958,-1.2999,-1.3036,-1.3063,-1.3096,-1.3141,-1.318,-1.3208,-1.3256,-1.3268,-1.3286,-1.3293,-1.3283,-1.3281,-1.33,-1.3299,-1.3307,-1.3307,-1.3307,-1.3306,0,-1.2686,-1.2724,-1.2779,-1.2838,-1.2853,-1.2883,-1.2933,-1.2964,-1.2994,-1.304,-1.3053,-1.3102,-1.315,-1.3188,-1.3251,-1.327,-1.332,-1.3328,-1.3304,-1.3308,-1.3325,-1.3323,-1.3374,-1.3383,-1.3358,-1.3358,-1.3359,0,-1.2703,-1.2733,-1.2795,-1.2821,-1.2849,-1.2892,-1.2922,-1.296,-1.299,-1.3047,-1.307,-1.312,-1.3162,-1.3237,-1.3278,-1.3326,-1.3336,-1.335,-1.3343,-1.3333,-1.3336,-1.3334,-1.3337,-1.3351,-1.3351,-1.3351,-1.3351,0,-1.2729,-1.2746,-1.2788,-1.2837,-1.2872,-1.2913,-1.2954,-1.2974,-1.302,-1.3052,-1.3102,-1.3134,-1.3198,-1.3248,-1.33,-1.333,-1.3349,-1.3353,-1.336,-1.3351,-1.3336,-1.3344,-1.3306,-1.3352,-1.3352,-1.3352,-1.3352,-1.3352,-1.2741,-1.2769,-1.2817,-1.2863,-1.2898,-1.2936,-1.2968,-1.3002,-1.3044,-1.3099,-1.312,-1.317,-1.3217,-1.329,-1.332,-1.3361,-1.3362,-1.3373,-1.3375,-1.3377,-1.3376,-1.3329,-1.337,-1.337,-1.337,-1.337,-1.3371,0,-1.2768,-1.2801,-1.2843,-1.2899,-1.2936,-1.295,-1.2996,-1.3025,-1.307,-1.3112,-1.3153,-1.321,-1.3258,-1.3303,-1.3353,-1.3377,-1.3386,-1.3388,-1.3387,-1.3394,-1.3371,-1.336,-1.338,-1.338,-1.338,-1.338,-1.338,-1.338,-1.2787,-1.2835,-1.2859,-1.2925,-1.2958,-1.3007,-1.3032,-1.3068,-1.3102,-1.3164,-1.3204,-1.3233,-1.3277,-1.333,-1.3375,-1.3387,-1.3404,-1.3404,-1.3419,-1.3397,-1.3395,-1.3394,-1.3384,-1.3408,-1.3408,-1.3438,-1.3438,-1.3438]}]]